Terug naar catalogus

STARLINK-35711

ActiefCommunicatieVLEO
NORAD 66595·PAYLOAD·🇺🇸 United States

Gelanceerd Nov 22, 2025 vanaf Cape Canaveral Space Force Station

Loading…

Volgende Passages (komende 24 uur)

TLE

VersSource: CelesTrak SupGP

Epoch: Sep 14, 2026, 23:02 UTC

1 66595C 25270H   26257.96020833  .00059048  00000+0  21368-2 0  2574
2 66595  43.0004  67.1325 0001817 275.9338  97.0047 15.27576852    18

Volg STARLINK-35711 in realtime met AllMySat

Download on the App Store